Location: Caserta
(41.0670°N, 14.3330°E)
Time: 13:10:51
(UTC+02:00)

STARLINK-1329 - Pass Details

Date: 08 October 2020
Orbit: 549 x 550 km, 53.0° (Epoch: 21 October)

Event Time Altitude Azimuth Distance (km) Brightness Sun altitude
Exits shadow 04:54:50 16° 355° (N) 1,498 5.9 -25.5°
Maximum altitude 04:54:56 16° 357° (N) 1,497 5.9 -25.5°
Drops below altitude 10° 04:57:29 10° 35° (NE) 1,825 6.9 -25.0°
Sets 05:00:30 0° 58° (ENE) 2,720 8.4 -24.5°
